[[[{"header":{"parameterUnit":"kt","parameterCategory":2,"dx":1,"dy":1,"la1":30.253999710083008,"la2":30.299108505249023,"lo1":-89.0895004272461,"lo2":-89.04439544677734,"nx":28,"ny":28,"refTime":"2022-10-27T21:00:00:Z","depth":0,"parameterNumber":1,"parameterNumberName":"U-component_of_WINDS"},"data":[-12.5252,-12.5481,-12.5524,-12.58,-12.5884,-12.6076,-12.6156,-12.6263,-12.6356,-12.6584,-12.6719,-12.6776,-12.6875,-12.7039,-12.718,-12.7199,-12.7253,-12.7308,-12.7319,-12.7052,-12.7017,-12.6983,-12.6932,-12.7322,-12.7322,-12.7587,-12.7589,-12.7591,-12.5057,-12.5146,-12.5306,-12.5487,-12.5622,-12.5597,-12.5734,-12.5845,-12.6015,-12.6131,-12.6266,-12.6465,-12.6623,-12.6704,-12.6859,-12.6956,-12.6945,-12.6995,-12.6982,-12.6996,-12.6716,-12.6662,-12.7001,-12.7001,-12.7001,-12.7001,-12.7001,-12.7001,-12.4713,-12.4849,-12.4984,-12.5156,-12.5258,-12.5376,-12.5508,-12.5578,-12.5727,-12.5901,-12.5913,-12.6101,-12.6216,-12.6416,-12.6489,-12.6631,-12.6579,-12.664,-12.6653,-12.6666,-12.6676,-12.6281,-12.6659,-12.6658,-12.6657,-12.6656,-12.6656,0,-12.4471,-12.4497,-12.4651,-12.482,-12.4946,-12.5077,-12.5201,-12.5283,-12.5337,-12.5456,-12.5631,-12.5735,-12.5939,-12.6099,-12.625,-12.6312,-12.628,-12.6283,-12.6323,-12.6316,-12.6294,-12.6301,-12.5835,-12.6268,-12.6265,-12.6263,-12.6261,-12.626,-12.4119,-12.4274,-12.4431,-12.4534,-12.4612,-12.4776,-12.4879,-12.4916,-12.5022,-12.5173,-12.5285,-12.5451,-12.5583,-12.5848,-12.591,-12.6058,-12.6041,-12.6203,-12.6062,-12.6054,-12.6035,-12.6023,-12.6035,-12.6226,-12.623,-12.6234,-12.6236,0,-12.3916,-12.398,-12.4229,-12.4366,-12.4405,-12.4561,-12.4673,-12.4805,-12.4853,-12.5039,-12.5084,-12.5155,-12.532,-12.5359,-12.5552,-12.5565,-12.5809,-12.5794,-12.5771,-12.5767,-12.591,-12.5893,-12.6381,-12.6444,-12.6049,-12.6053,-12.6056,0,-12.3636,-12.3835,-12.3915,-12.4056,-12.4278,-12.4309,-12.4524,-12.4586,-12.4688,-12.4835,-12.4813,-12.4949,-12.4977,-12.5117,-12.5137,-12.5344,-12.5381,-12.54,-12.5401,-12.5398,-12.5394,-12.5441,-12.5419,-12.5406,-12.5403,-12.5401,-12.5399,0,-12.3304,-12.3581,-12.3812,-12.3883,-12.4043,-12.4149,-12.4219,-12.4331,-12.4429,-12.4562,-12.4624,-12.4774,-12.4853,-12.4967,-12.499,-12.4892,-12.5246,-12.5116,-12.5263,-12.5263,-12.5331,-12.5324,-12.5757,-12.5396,-12.5395,-12.5394,-12.5393,0,-12.3082,-12.3227,-12.3554,-12.3686,-12.3755,-12.3905,-12.4058,-12.4196,-12.4315,-12.4339,-12.4441,-12.4426,-12.4615,-12.4483,-12.474,-12.4606,-12.4684,-12.4721,-12.4732,-12.4742,-12.4591,-12.482,-12.5236,-12.5277,-12.4764,-12.4759,-12.4754,0,-12.2683,-12.303,-12.3059,-12.3366,-12.353,-12.3495,-12.3661,-12.3768,-12.3814,-12.3953,-12.4001,-12.4157,-12.4067,-12.4119,-12.4244,-12.4294,-12.4468,-12.4272,-12.4457,-12.4463,-12.4422,-12.4807,-12.4855,-12.5144,-12.4688,-12.4695,-12.47,0,-12.2379,-12.2577,-12.2629,-12.271,-12.2861,-12.2996,-12.3187,-12.3352,-12.3444,-12.3565,-12.372,-12.3942,-12.3881,-12.3968,-12.3968,-12.4095,-12.4351,-12.401,-12.4012,-12.4064,-12.4659,-12.4704,-12.4753,-12.4322,-12.433,-12.4337,-12.4647,0,-12.202,-12.22,-12.2348,-12.2526,-12.2638,-12.2832,-12.2878,-12.2988,-12.2981,-12.3023,-12.3253,-12.3343,-12.3501,-12.3567,-12.3557,-12.3838,-12.3793,-12.3725,-12.359,-12.3846,-12.3948,-12.3991,-12.3435,-12.3432,-12.3429,-12.3426,0,0,-12.1618,-12.1877,-12.1899,-12.2088,-12.2182,-12.214,-12.2342,-12.2427,-12.2598,-12.2661,-12.259,-12.2913,-12.2987,-12.3258,-12.3342,-12.3407,-12.3457,-12.3365,-12.3726,-12.3759,-12.379,-12.3899,-12.3943,-12.342,-12.3419,-12.3418,-12.3417,0,-12.1494,-12.1588,-12.1793,-12.1885,-12.2021,-12.2057,-12.2107,-12.223,-12.2264,-12.2493,-12.2443,-12.2585,-12.2841,-12.2925,-12.3,-12.3338,-12.3286,-12.3383,-12.3551,-12.3693,-12.3731,-12.3764,-12.3879,-12.3921,-12.3409,-12.341,-12.341,0,-12.1198,-12.1295,-12.1399,-12.1617,-12.1703,-12.187,-12.1745,-12.1926,-12.2048,-12.1978,-12.2202,-12.2256,-12.237,-12.2624,-12.2739,-12.2674,-12.3127,-12.2991,-12.3012,-12.3022,-12.3161,-12.3206,-12.3246,-12.2715,-12.2712,-12.271,0,0,-12.1082,-12.1251,-12.1359,-12.1592,-12.1651,-12.1706,-12.1798,-12.1799,-12.191,-12.1953,-12.202,-12.2123,-12.2271,-12.2367,-12.2508,-12.2782,-12.2803,-12.2904,-12.2937,-12.2964,-12.2988,-12.3134,-12.3179,-12.27,-12.27,-12.27,0,0,-12.1024,-12.1162,-12.1137,-12.1414,-12.1526,-12.164,-12.1777,-12.1746,-12.1878,-12.1858,-12.1859,-12.1886,-12.2124,-12.2176,-12.2045,-12.2458,-12.2326,-12.2358,-12.2414,-12.2456,-12.2488,-12.2467,-12.1918,0,0,0,0,0,-12.0919,-12.1146,-12.1123,-12.1176,-12.1444,-12.1656,-12.1689,-12.17,-12.1608,-12.1717,-12.1767,-12.1708,-12.2106,-12.1989,-12.2037,-12.218,-12.2576,-12.2598,-12.2619,-12.2757,-12.28,-12.2837,0,0,0,0,0,0,-12.094,-12.1005,-12.1116,-12.1241,-12.1302,-12.1648,-12.1493,-12.1502,-12.1596,-12.1583,-12.1701,-12.1711,-12.1719,-12.1965,-12.2008,-12.2144,-12.1903,-12.2585,-12.2604,-12.262,-12.2772,-12.2807,-12.2838,0,0,0,0,0,-12.0956,-12.1009,-12.1438,-12.1238,-12.129,-12.1361,-12.1484,-12.1491,-12.1563,-12.164,-12.1649,-12.1563,-12.1723,-12.1759,-12.199,-12.2124,-12.1873,-12.1889,-12.2597,-12.2612,-12.2625,-12.2789,0,0,0,0,0,0,-12.0969,-12.1013,-12.1449,-12.1465,-12.1153,-12.1341,-12.1371,-12.1481,-12.1613,-12.1626,-12.1501,-12.1488,-12.1728,-12.1755,-12.1784,-12.2118,-12.1849,-12.1866,-12.1876,-12.2608,-12.262,-12.263,0,0,0,0,0,0,-12.0985,-12.1027,-12.1457,-12.1349,-12.1353,-12.1323,-12.135,-12.1546,-12.1615,-12.1466,-12.146,-12.1494,-12.1682,-12.1754,-12.1776,-12.2081,-12.1831,-12.1846,-12.1857,-12.1864,-12.2618,-12.2627,0,0,0,0,0,0,-12.1002,-12.1039,-12.1345,-12.1348,-12.1351,-12.1531,-12.1495,-12.1767,-12.1532,-12.1461,-12.1511,-12.1501,-12.1682,-12.1704,-12.1771,-12.2067,-12.2077,-12.1831,-12.1842,-12.1849,-12.1854,0,0,0,0,0,0,0,-12.1017,-12.0774,-12.1355,-12.1347,-12.1349,-12.1614,-12.1618,-12.1622,-12.153,-12.1522,-12.1513,-12.1505,-12.1742,-12.1759,-12.1776,-12.2056,0,0,-12.183,-12.1837,0,0,0,0,0,0,0,0,-12.0758,-12.077,-12.1356,-12.1359,-12.1362,-12.1614,-12.1618,-12.1621,-12.1529,-12.1522,-12.1515,-12.1508,-12.1746,-12.176,-12.1774,0,0,0,0,0,0,0,0,0,0,0,0,0,0,0,-12.1356,-12.1359,0,-12.1615,-12.1618,-12.162,-12.1528,-12.1522,-12.1516,-12.1511,-12.175,-12.1761,-12.1773,0,0,0,0,0,0,0,0,0,0,0,0,0,0,0,0,0,0,0,0,0,0,0,0,0,0,0,0,0,0,0,0,0,0,0,0,0,0,0,0,0,0,0,0,0,0,0,0,0,0,0,0,0,0,0,0,0,0,0,0,0,0,0,0,0,0,0,0,0]}],[{"header":{"parameterUnit":"kt","parameterCategory":2,"dx":1,"dy":1,"la1":30.253999710083008,"la2":30.299108505249023,"lo1":-89.0895004272461,"lo2":-89.04439544677734,"nx":28,"ny":28,"refTime":"2022-10-27T21:00:00:Z","depth":0,"parameterNumber":2,"parameterNumberName":"V-component_of_WINDS"},"data":[1.926,1.9456,1.949,1.9732,1.9803,1.9977,2.0051,2.0151,2.0239,2.0455,2.0586,2.0644,2.075,2.0919,2.1067,2.109,2.1153,2.12,2.1221,2.0975,2.0943,2.0914,2.0869,2.1211,2.1212,2.1472,2.1475,2.1477,1.9085,1.9156,1.9291,1.9446,1.9565,1.954,1.9664,1.9767,1.9924,2.0034,2.0163,2.0358,2.0517,2.0609,2.077,2.087,2.087,2.0911,2.0908,2.0926,2.0663,2.0615,2.0909,2.0909,2.0909,2.0908,2.0908,2.0908,1.8776,1.8891,1.9002,1.915,1.9237,1.9342,1.946,1.9525,1.9661,1.9827,1.9842,2.0022,2.0142,2.0352,2.0431,2.0577,2.0539,2.0596,2.0612,2.0628,2.0642,2.0272,2.0605,2.0605,2.0604,2.0604,2.0603,0,1.8561,1.858,1.871,1.8852,1.8962,1.9076,1.9186,1.9261,1.9315,1.9426,1.9591,1.9693,1.9895,2.0058,2.0215,2.0287,2.0279,2.028,2.0321,2.032,2.03,2.032,1.9896,2.0271,2.0268,2.0266,2.0265,2.0264,1.8257,1.8385,1.8515,1.8603,1.867,1.8812,1.8904,1.8941,1.9039,1.9183,1.9286,1.9447,1.9578,1.984,1.9919,2.0072,2.0071,2.0211,2.0094,2.0087,2.0082,2.0076,2.0092,2.0235,2.0238,2.0241,2.0244,0,1.8084,1.8133,1.8343,1.8459,1.8492,1.8627,1.873,1.8848,1.8897,1.9069,1.9111,1.9191,1.9353,1.9409,1.9606,1.9631,1.9869,1.9859,1.9829,1.9832,1.9969,1.9958,2.0389,2.045,2.0088,2.0092,2.0094,0,1.7847,1.8014,1.8079,1.8198,1.8387,1.8417,1.8605,1.8665,1.8763,1.8898,1.8892,1.902,1.9069,1.9207,1.9244,1.9446,1.9481,1.9515,1.9524,1.9519,1.9516,1.9577,1.9563,1.953,1.9527,1.9525,1.9524,0,1.7576,1.7803,1.7994,1.8055,1.8195,1.8287,1.835,1.8459,1.8549,1.8675,1.8736,1.8881,1.8962,1.9078,1.9123,1.9042,1.9369,1.9267,1.9404,1.9404,1.9477,1.9473,1.9836,1.9521,1.952,1.9519,1.9519,0,1.7393,1.7512,1.778,1.7898,1.7957,1.8083,1.8226,1.8346,1.8462,1.8491,1.8591,1.8595,1.8769,1.8666,1.8911,1.8793,1.8875,1.8921,1.8932,1.8956,1.884,1.9045,1.9379,1.942,1.8973,1.8969,1.8965,0,1.7073,1.7354,1.7379,1.7635,1.7772,1.7755,1.7897,1.7997,1.8047,1.8176,1.8233,1.838,1.8313,1.8367,1.848,1.8547,1.8699,1.8527,1.8724,1.8731,1.8699,1.9006,1.9045,1.9298,1.8907,1.8913,1.8917,0,1.683,1.6992,1.7035,1.7106,1.7237,1.7352,1.7514,1.7662,1.7747,1.7857,1.7999,1.8202,1.8163,1.8251,1.8268,1.8383,1.8597,1.8325,1.8329,1.8378,1.888,1.8917,1.8959,1.8585,1.8592,1.8598,1.8872,0,1.6555,1.6698,1.6814,1.6965,1.706,1.7219,1.727,1.7364,1.737,1.7418,1.7624,1.7719,1.7874,1.7932,1.7939,1.8182,1.8152,1.8106,1.8013,1.8211,1.8304,1.8341,1.7871,1.7869,1.7867,1.7865,0,0,1.624,1.6445,1.6465,1.6619,1.6701,1.6678,1.6845,1.6923,1.7081,1.7141,1.7088,1.7389,1.7469,1.7715,1.778,1.7841,1.7892,1.7819,1.8115,1.8142,1.8168,1.8266,1.8303,1.7861,1.7861,1.786,1.7859,0,1.6149,1.6219,1.6379,1.646,1.6578,1.6619,1.6657,1.6772,1.6811,1.7007,1.699,1.712,1.7356,1.7447,1.7523,1.7789,1.7772,1.7832,1.7959,1.8092,1.8122,1.8149,1.8251,1.8286,1.7854,1.7854,1.7855,0,1.5923,1.6004,1.6084,1.6262,1.6339,1.648,1.6392,1.6542,1.6649,1.662,1.6816,1.6876,1.6998,1.7219,1.7321,1.7276,1.7661,1.7546,1.756,1.7574,1.7706,1.7742,1.7774,1.7349,1.7347,1.7346,0,0,1.5839,1.5969,1.6066,1.6246,1.6296,1.6357,1.6435,1.6448,1.6553,1.6596,1.6672,1.6779,1.6919,1.701,1.7142,1.7376,1.7408,1.7481,1.7505,1.7524,1.7549,1.7685,1.7721,1.7338,1.7338,1.7338,0,0,1.58,1.5917,1.5901,1.6114,1.6213,1.6324,1.6435,1.642,1.6543,1.653,1.6562,1.6592,1.6799,1.6859,1.6752,1.7111,1.7017,1.7043,1.7065,1.7095,1.7119,1.7103,1.6679,0,0,0,0,0,1.5731,1.5902,1.5886,1.5929,1.6154,1.6332,1.6362,1.6388,1.6322,1.641,1.6472,1.6445,1.6809,1.6715,1.676,1.688,1.7242,1.7259,1.7275,1.7358,1.7389,1.7416,0,0,0,0,0,0,1.5747,1.5799,1.5882,1.5998,1.6049,1.6326,1.6219,1.6232,1.6313,1.6305,1.6433,1.6449,1.6478,1.6694,1.6734,1.6847,1.6666,1.7248,1.7263,1.7276,1.7369,1.7395,1.7417,0,0,0,0,0,1.5761,1.5803,1.6155,1.5997,1.6041,1.6118,1.6213,1.6222,1.6286,1.6381,1.6395,1.6299,1.648,1.6516,1.6718,1.6828,1.6639,1.6653,1.7258,1.7269,1.7279,1.7381,0,0,0,0,0,0,1.5771,1.5815,1.6164,1.6179,1.5932,1.6103,1.613,1.6214,1.6358,1.6373,1.6248,1.624,1.6484,1.6511,1.6539,1.682,1.6616,1.6631,1.6641,1.7266,1.7275,1.7283,0,0,0,0,0,0,1.5793,1.5827,1.6172,1.6089,1.6094,1.6089,1.6114,1.6289,1.636,1.6217,1.6214,1.6242,1.6444,1.6509,1.653,1.6802,1.6599,1.6613,1.6623,1.663,1.7274,1.7281,0,0,0,0,0,0,1.5808,1.5838,1.6085,1.6089,1.6094,1.6262,1.6245,1.6475,1.6284,1.6211,1.6268,1.626,1.6443,1.6465,1.6524,1.6788,1.6799,1.6599,1.6609,1.6616,1.6621,0,0,0,0,0,0,0,1.582,1.5612,1.6076,1.609,1.6093,1.6315,1.6319,1.6323,1.6282,1.6276,1.6269,1.6263,1.6517,1.6533,1.6549,1.6776,0,0,1.6598,1.6605,0,0,0,0,0,0,0,0,1.56,1.5609,1.6077,1.608,1.6083,1.6316,1.6319,1.6323,1.6281,1.6276,1.6271,1.6266,1.6521,1.6534,1.6547,0,0,0,0,0,0,0,0,0,0,0,0,0,0,0,1.6077,1.608,0,1.6316,1.6319,1.6322,1.628,1.6276,1.6272,1.6268,1.6525,1.6535,1.6546,0,0,0,0,0,0,0,0,0,0,0,0,0,0,0,0,0,0,0,0,0,0,0,0,0,0,0,0,0,0,0,0,0,0,0,0,0,0,0,0,0,0,0,0,0,0,0,0,0,0,0,0,0,0,0,0,0,0,0,0,0,0,0,0,0,0,0,0,0]}]]]